Showing default

JILIN-01-08, 43160

Orbit data source: Space-Track

JILIN-01-08, 43160 is a payload satellite owned by Changguang WJ (CN) in SSO that was launched on Fri, 19 Jan 2018 UTC via a CHANG ZHENG 11 launch vehicle from the Jiuquan Satellite Launch Center, China (JSC). Payload-class satellites include a variety of spacecraft equipped with specific instruments for various scientific and technological missions. These include communications satellites like Starlink; space stations such as the ISS; scientific satellites like the Hubble; Earth observation satellites from companies like Planet Labs, Umbra, and HawkEye 360; GPS; miniature CubeSats for education and research; and military/defense satellites.

Loading next visibility...
Identifier
43160, 2018-008F
Orbit
SSO
Last TLE update
9 hours ago
Origin
Manufacturer
Changguang WJ
Mission
Operational Commercial Imaging
Bus & Motor
JL-1, Unknown motor
Mass
95 kg wet, 95 kg dry
Launch date (UTC)
2018-01-19 (7 years ago)
Launch vehicle
CHANG ZHENG 11
Launch site
Jiuquan Satellite Launch Center, China (JSC)
Object type
Payload
Rocket body
Debris
Shape & HBR
Box + 2 Pan, 0.8 m
Radar Cross Section
2.000 m², Medium (>0.1 m² and < 1m²)

Expand to show TLE details & history

TLE from 9 hours ago
0 JILIN-01-08
1 43160U 18008F   25199.59045009  .00005645  00000-0  21081-3 0  9994
2 43160  97.2072 223.9520 0007179 171.1226 189.0142 15.27740164413910
Epoch: 2025-07-18T14:10Z
TLE epoch observation values (Epoch: 2025-07-18T14:10:14.887Z)
Latitude
-0.00006°
Longitude
74.75025°
Altitude
490.542 km
Speed
7.617 km/s
True Right ascension
14h 55m 48s
True Declination
0° 00' 00"
Sunlit
Object was in daylight at epoch
Visualization orbit readout
Latitude
-44.16696°
Longitude
82.13889°
Altitude
503.733 km
Speed
7.609 km/s
Apparent Right ascension
19h 46m 22s
Apparent Declination
-65° 30' 32"
Sunlit
Object is in full shadow
Visualization observer readout
Local Sidereal Time
12:12:05
Azimuth
147.289° SSE
Elevation
-45.323°
Doppler factor
1
Orbital elements
Apogee altitude
484.44 km
Perigee altitude
474.594 km
Semi-major axis
6,857.654 km
Eccentricity
0.00072
Inclination
97.2072°
RAAN
223.952°
Arg. of periapsis
171.1226°
True anomaly
189.00132°
Mean anomaly
189.0142°
Eccentric anomaly
189.00776°
Mean motion
3.8219 °/min
Orbital period
94.19 mins
BSTAR
0.00021081
Loading maneuver chart data...
Loading SW <> Apogee altitude chart data...
Loading historical data...
Loading historical data...
Loading historical data...
Loading historical data...
Loading historical data...
Loading historical data...
Loading historical data...
|